カタログに戻る

STARLINK-35580

運用中通信VLEO
NORAD 66155·PAYLOAD·🇺🇸 United States

打ち上げ Oct 25, 2025 から Cape Canaveral Space Force Station

Loading…

次のパス (今後24時間)

TLE

最新Source: CelesTrak SupGP

元期: Sep 14, 2026, 22:59 UTC

1 66155C 25240K   26257.95812500  .00035675  00000+0  10540-2 0  2572
2 66155  53.1582 259.3137 0001314  88.8865  62.2820 15.34372758    17

AllMySatでSTARLINK-35580をリアルタイム追跡

Download on the App Store